Stations météo

réclame
Mon MeteoGroup
Rouen, France (7037): Température de l'air & dewpoint: 11.01.2018 07:00:00 - 17.01.2018 07:00:00 (CET)Rouen, France (7037): Température de l'air 5cm: 11.01.2018 07:00:00 - 17.01.2018 07:00:00 (CET)Rouen, France (7037): Température de l'air -20cm & Température de l'air -100cm: 11.01.2018 07:00:00 - 17.01.2018 07:00:00 (CET)Rouen, France (7037): Vitesse du vent & gusts: 11.01.2018 07:00:00 - 17.01.2018 07:00:00 (CET)Rouen, France (7037): Direction du vent: 11.01.2018 07:00:00 - 17.01.2018 07:00:00 (CET)Rouen, France (7037): reduced air pressure: 11.01.2018 07:00:00 - 17.01.2018 07:00:00 (CET)Rouen, France (7037): visibility: 11.01.2018 07:00:00 - 17.01.2018 07:00:00 (CET)Rouen, France (7037): Ensoleillement: 11.01.2018 07:00:00 - 17.01.2018 07:00:00 (CET)Rouen, France (7037): Quantités de précipitations: 11.01.2018 07:00:00 - 17.01.2018 07:00:00 (CET)
Date & Time tt [°C] td [°C] tt 5cm [°C] tt -20cm [°C] tt -100cm [°C] ff [km/h] ff [knt] fx [km/h] fx [knt] dd ppp [hPa] vv [km] sd [min] rr [mm]
17.01.2018 07:00:00 4,5 -0,7 1,9 6,1 8,0 29 16 66 35 WNW 1006,4 50 0 0,2
17.01.2018 06:00:00 3,2 0,4 2,1 6,1 8,0 21 11 48 26 WSW 1005,2 53 0 0,0
17.01.2018 05:00:00 3,4 -1,2 1,9 6,2 8,0 31 17 55 30 WNW 1004,6 10 0 0,0
17.01.2018 04:00:00 3,6 0,8 2,3 6,2 8,0 28 15 55 30 W 1003,7 10 0 0,0
17.01.2018 03:00:00 3,0 1,8 1,7 6,2 8,0 16 9 27 15 WSW 1003,2 10 0 0,0
17.01.2018 02:00:00 2,5 1,3 1,7 6,3 8,0 21 11 53 29 W 1002,6 60 0 1,4
17.01.2018 01:00:00 3,3 2,3 2,2 6,4 8,0 29 16 45 24 WSW 1001,4 10 0 0,2
17.01.2018 00:00:00 3,0 1,8 2,2 6,4 8,0 22 12 62 34 W 1001,9 10 0 1,2
16.01.2018 23:00:00 4,1 2,4 3,4 6,4 8,0 26 14 64 35 WSW 1000,5 10 0 0,4
16.01.2018 22:00:00 4,6 3,3 4,0 6,4 8,0 29 16 42 23 WSW 1000,2 10 0 0,0
16.01.2018 21:00:00 4,6 3,3 4,0 6,4 8,0 26 14 42 23 WSW 1000,7 10 0 0,0
16.01.2018 20:00:00 4,5 3,5 2,9 6,4 8,0 24 13 42 23 WSW 1000,9 10 0 1,0
16.01.2018 19:00:00 4,4 2,3 2,9 6,4 8,0 17 9 43 23 WNW 1001,4 5 0 1,0
16.01.2018 18:00:00 5,1 3,8 4,4 6,4 8,1 19 11 32 17 WSW 1001,4 49 0 0,6
16.01.2018 17:00:00 5,5 4,1 4,8 6,4 8,1 14 8 40 21 W 1001,9 56 0 0,4
16.01.2018 16:00:00 6,1 3,9 4,9 6,3 8,1 24 13 76 41 W 1002,1 56 1 0,6
16.01.2018 15:00:00 6,8 4,6 5,7 6,3 8,1 23 13 47 25 W 1001,3 52 3 0,6
16.01.2018 14:00:00 6,6 4,9 5,3 6,2 8,1 26 14 61 33 W 1002,0 19 7 0,8
16.01.2018 13:00:00 7,3 4,3 6,2 6,2 8,1 30 16 50 27 W 1002,4 15 2 0,0
16.01.2018 12:00:00 8,4 5,0 8,1 6,2 8,1 29 16 54 29 W 1002,4 20 34 0,0
16.01.2018 11:00:00 6,5 4,2 4,5 6,2 8,1 27 15 65 35 W 1002,4 60 14 1,6
16.01.2018 10:00:00 5,3 4,4 4,4 6,2 8,1 17 9 63 34 W 1002,1 12 0 1,6
16.01.2018 09:00:00 7,0 4,6 5,8 6,2 8,1 22 12 47 26 W 1000,8 20 0 0,0
16.01.2018 08:00:00 7,2 4,8 6,0 6,2 8,1 25 13 51 28 W 1000,4 19 0 0,0
16.01.2018 07:00:00 7,9 5,9 6,9 6,1 8,1 33 18 69 38 W 999,5 12 0 0,2
16.01.2018 06:00:00 7,6 5,9 6,6 6,1 8,1 30 16 47 25 WSW 999,2 41 0 0,0
16.01.2018 05:00:00 7,5 5,5 6,5 6,1 8,1 26 14 48 26 W 999,6 47 0 0,0
16.01.2018 04:00:00 7,4 5,7 6,3 6,1 8,1 23 13 43 23 W 1000,2 45 0 0,2
16.01.2018 03:00:00 7,4 6,2 6,7 6,0 8,1 24 13 40 22 WSW 1000,2 13 0 0,0
16.01.2018 02:00:00 7,4 6,5 6,6 6,0 8,1 23 12 41 22 WSW 1000,4 18 0 1,0
16.01.2018 01:00:00 7,1 6,0 6,6 6,0 8,1 15 8 35 19 W 1001,1 4,9 0 2,2
16.01.2018 00:00:00 8,0 5,6 6,9 6,0 8,1 22 12 46 25 W 1001,3 20 0 0,0
15.01.2018 23:00:00 7,9 5,7 7,0 5,9 8,1 23 12 44 24 WSW 1001,4 48 0 0,0
15.01.2018 22:00:00 7,8 5,3 6,8 5,9 8,1 23 13 44 24 W 1001,0 43 0 0,0
15.01.2018 21:00:00 8,3 5,4 7,4 5,9 8,2 23 13 50 27 W 1001,0 42 0 0,0
15.01.2018 20:00:00 8,8 5,9 8,0 5,8 8,2 29 16 62 33 W 1000,6 39 0 0,0
15.01.2018 19:00:00 9,3 6,4 7,8 5,8 8,1 31 17 59 32 W 999,7 40 0 0,0
15.01.2018 18:00:00 9,5 7,4 8,6 5,7 8,2 29 16 53 28 W 999,3 60 0 0,0
15.01.2018 17:00:00 9,0 8,5 8,1 5,7 8,1 28 15 47 25 SW 999,2 60 0 0,0
15.01.2018 16:00:00 8,0 7,7 7,2 5,6 8,2 33 18 61 33 SW 999,5 10 0 1,6
15.01.2018 15:00:00 7,4 6,8 6,7 5,6 8,1 41 22 66 35 SSW 1000,4 4,1 0 1,3
15.01.2018 14:00:00 6,8 6,2 5,9 5,6 8,2 40 21 67 36 SSW 1001,7 7 0 2,4
15.01.2018 13:00:00 6,3 5,6 5,8 5,6 8,2 36 19 64 34 SSW 1004,6 6 0 2,0
15.01.2018 12:00:00 6,1 5,2 5,2 5,6 8,2 35 19 61 33 S 1006,0 19 0 0,4
15.01.2018 11:00:00 5,5 4,6 4,9 5,6 8,2 36 19 50 27 S 1008,8 7 0 0,6
15.01.2018 10:00:00 5,3 3,8 4,8 5,5 8,2 32 18 45 24 SSW 1010,5 18 0 0,0
15.01.2018 09:00:00 5,1 3,6 4,7 5,5 8,2 34 19 47 26 SSW 1011,5 14 0 0,0
15.01.2018 08:00:00 5,2 3,7 4,4 5,5 8,2 28 15 39 21 SSW 1012,4 10 0 0,0
15.01.2018 07:00:00 5,1 3,8 4,5 5,5 8,2 23 13 34 18 S 1013,3 18 0 0,0
15.01.2018 06:00:00 4,7 4,1 4,3 5,5 8,2 21 11 36 19 SSW 1014,7 11 0 0,0
15.01.2018 05:00:00 4,6 4,3 4,1 5,5 8,2 21 11 29 16 SSW 1015,1 8 0 0,0
15.01.2018 04:00:00 4,2 4,1 3,6 5,5 8,2 22 12 29 15 S 1015,9 7 0 0,0
15.01.2018 03:00:00 3,7 3,7 3,2 5,5 8,2 11 6 23 13 S 1017,2 5 0 0,0
15.01.2018 02:00:00 3,2 3,2 2,7 5,5 8,2 21 11 32 17 SW 1017,7 2,5 0 0,0
15.01.2018 01:00:00 2,7 2,6 2,1 5,6 8,2 19 10 29 16 SSW 1018,5 0,3 0 0,0
15.01.2018 00:00:00 2,1 2,0 1,6 5,6 8,2 11 6 17 9 SW 1019,4 0,2 0 0,0
14.01.2018 23:00:00 1,6 1,5 1,0 5,6 8,2 9 5 18 10 SSW 1019,4 0,1 0 0,0
14.01.2018 22:00:00 1,0 0,9 0,4 5,7 8,2 10 6 18 10 SW 1019,8 0,1 0 0,0
14.01.2018 21:00:00 0,6 0,3 -1,1 5,7 8,3 11 6 15 8 SW 1019,5 0,1 0 0,0
14.01.2018 20:00:00 1,4 1,0 -3,8 5,8 8,3 6 3 14 7 S 1018,7 2,6 0 0,0
14.01.2018 19:00:00 1,4 0,8 -3,3 5,7 8,3 8 4 9 5 SSE 1018,8 4,1 0 0,0
14.01.2018 18:00:00 1,8 0,6 -2,4 5,7 8,3 2 1 6 3 S 1019,0 6 0 0,0
14.01.2018 17:00:00 3,7 1,4 0,1 5,6 8,3 3 2 7 4 SSW 1018,3 8 2 0,0
14.01.2018 16:00:00 5,2 2,0 6,1 5,5 8,2 6 3 10 6 SSW 1017,7 8 19 0,0
14.01.2018 15:00:00 6,3 2,2 7,2 5,5 8,3 4 2 8 5 SSW 1017,6 9 60 0,0
14.01.2018 14:00:00 6,6 2,3 9,0 5,5 8,2 6 3 9 5 SSW 1017,7 8 60 0,0
14.01.2018 13:00:00 5,4 2,0 6,9 5,5 8,3 8 4 12 7 SSW 1017,9 7 60 0,0
14.01.2018 12:00:00 3,2 1,4 4,6 5,5 8,3 5 3 11 6 ESE 1018,5 6 60 0,0
14.01.2018 11:00:00 1,2 0,6 0,4 5,6 8,3 8 5 12 6 E 1018,3 4,6 47 0,0
14.01.2018 10:00:00 -0,9 -1,3 -4,8 5,7 8,3 4 2 8 4 - 1018,0 3,1 0 0,0
14.01.2018 09:00:00 -1,7 -2,1 -4,8 5,8 8,3 4 2 11 6 ENE 1017,8 2,6 0 0,0
14.01.2018 08:00:00 -1,7 -2,3 -4,2 5,8 8,3 9 5 13 7 ENE 1017,5 3,5 0 0,0
14.01.2018 07:00:00 -1,3 -1,9 -2,6 5,9 8,3 10 6 13 7 ENE 1017,1 4,1 0 0,0
14.01.2018 06:00:00 -0,1 -0,7 -2,2 5,9 8,3 10 5 12 7 NE 1016,9 5 0 0,0
14.01.2018 05:00:00 -0,1 -0,7 -1,5 5,9 8,3 9 5 14 8 NE 1016,8 6 0 0,0
14.01.2018 04:00:00 -0,5 -1,2 -1,7 6,0 8,3 10 5 14 8 ENE 1017,0 6 0 0,0
14.01.2018 03:00:00 -0,2 -0,9 -1,4 6,0 8,3 11 6 13 7 ENE 1017,0 7 0 0,0
14.01.2018 02:00:00 1,0 -0,3 -0,7 6,0 8,3 5 3 16 9 ENE 1017,0 8 0 0,0
14.01.2018 01:00:00 1,8 0,3 1,3 6,1 8,3 12 6 18 10 ENE 1017,0 8 0 0,0
14.01.2018 00:00:00 2,3 0,5 1,7 6,1 8,3 12 6 18 10 E 1017,2 10 0 0,0
13.01.2018 23:00:00 2,8 0,8 2,4 6,1 8,3 11 6 25 13 E 1017,5 10 0 0,0
13.01.2018 22:00:00 3,3 1,3 2,8 6,1 8,3 16 9 31 17 E 1017,5 10 0 0,0
13.01.2018 21:00:00 3,6 2,0 3,3 6,2 8,3 18 10 27 15 E 1017,9 9 0 0,0
13.01.2018 20:00:00 3,4 2,1 1,8 6,2 8,3 11 6 24 13 E 1018,3 8 0 0,0
13.01.2018 19:00:00 2,7 1,4 1,7 6,2 8,3 13 7 19 10 E 1018,3 9 0 0,0
13.01.2018 18:00:00 3,2 1,4 2,2 6,2 8,3 16 9 29 15 E 1018,3 11 0 0,0
13.01.2018 17:00:00 3,7 1,7 3,7 6,2 8,3 18 10 33 18 ESE 1018,5 11 0 0,0
13.01.2018 16:00:00 3,6 1,6 3,7 6,2 8,3 24 13 40 22 ESE 1018,6 13 0 0,0
13.01.2018 15:00:00 3,8 2,0 4,0 6,1 8,3 22 12 38 21 ESE 1018,9 14 0 0,0
13.01.2018 14:00:00 4,4 2,4 4,9 6,1 8,3 23 12 34 18 ESE 1019,6 14 0 0,0
13.01.2018 13:00:00 4,6 3,1 4,7 6,2 8,4 20 11 33 18 ESE 1020,2 9 0 0,0
13.01.2018 12:00:00 4,2 3,6 4,0 6,1 8,3 16 9 35 19 SE 1021,0 5 0 0,0
13.01.2018 11:00:00 3,7 3,6 3,6 6,1 8,3 18 10 33 18 SE 1021,2 4,4 0 0,0
13.01.2018 10:00:00 3,4 3,3 3,4 6,2 8,3 25 13 35 19 ESE 1021,2 3,5 0 0,0
13.01.2018 09:00:00 3,6 3,6 3,0 6,2 8,3 14 8 26 14 ESE 1021,3 2,3 0 0,0
13.01.2018 08:00:00 3,0 3,0 3,0 6,2 8,3 13 7 21 11 SE 1021,6 0,1 0 0,0
13.01.2018 07:00:00 3,1 3,0 2,8 6,3 8,3 14 7 22 12 SE 1021,9 0,2 0 0,0
13.01.2018 06:00:00 2,8 2,7 2,1 6,4 8,3 15 8 21 11 SE 1022,4 0,1 0 0,0
13.01.2018 05:00:00 2,4 2,3 -0,2 6,4 8,3 13 7 21 11 SE 1022,6 0,6 0 0,0
13.01.2018 04:00:00 0,7 0,4 -1,2 6,5 8,4 12 7 16 8 ESE 1023,3 1,6 0 0,0
13.01.2018 03:00:00 1,5 1,1 -0,2 6,6 8,4 10 6 18 10 ESE 1023,9 2,4 0 0,0
13.01.2018 02:00:00 2,0 1,7 -2,6 6,6 8,4 14 8 19 10 ESE 1023,8 3,2 0 0,0
13.01.2018 01:00:00 1,2 0,3 -1,8 6,6 8,4 6 3 11 6 ESE 1024,7 2,2 0 0,0
13.01.2018 00:00:00 3,1 1,9 1,8 6,6 8,3 9 5 15 8 E 1025,0 5 0 0,0
12.01.2018 23:00:00 3,4 2,2 2,8 6,6 8,4 7 4 14 8 E 1025,5 7 0 0,0
12.01.2018 22:00:00 3,8 2,6 3,5 6,6 8,3 8 4 13 7 ESE 1026,3 10 0 0,0
12.01.2018 21:00:00 3,9 2,6 3,8 6,6 8,4 11 6 18 10 SE 1026,5 10 0 0,0
12.01.2018 20:00:00 3,9 2,9 3,8 6,6 8,4 8 5 21 12 SE 1026,3 9 0 0,0
12.01.2018 19:00:00 3,8 2,9 3,7 6,6 8,4 10 6 18 10 SE 1026,2 9 0 0,0
12.01.2018 18:00:00 3,6 2,7 3,8 6,6 8,4 6 3 16 8 SE 1026,4 10 0 0,0
12.01.2018 17:00:00 3,6 2,9 4,0 6,6 8,4 9 5 16 9 SE 1026,2 8 0 0,0
12.01.2018 16:00:00 3,7 3,1 4,6 6,6 8,4 7 4 14 7 SE 1026,5 7 0 0,0
12.01.2018 15:00:00 3,7 3,3 4,8 6,6 8,4 4 2 10 5 S 1026,5 6 0 0,0
12.01.2018 14:00:00 3,8 3,7 4,9 6,5 8,4 0 0 12 6 N 1026,8 6 0 0,0
12.01.2018 13:00:00 3,8 3,8 5,0 6,5 8,4 8 4 17 9 E 1027,0 4,0 0 0,0
12.01.2018 12:00:00 3,9 3,9 4,2 6,5 8,4 9 5 15 8 ESE 1027,2 1,2 0 0,0
12.01.2018 11:00:00 3,5 3,5 3,3 6,6 8,4 12 7 16 9 E 1027,2 0,3 0 0,0
12.01.2018 10:00:00 2,9 2,9 2,9 6,6 8,4 9 5 16 9 E 1027,2 0,3 0 0,0
12.01.2018 09:00:00 2,8 2,8 2,8 6,6 8,4 10 5 13 7 ENE 1026,9 1,0 0 0,0
12.01.2018 08:00:00 2,8 2,8 2,8 6,6 8,4 8 4 11 6 NNE 1027,0 2,4 0 0,0
12.01.2018 07:00:00 2,8 2,8 2,9 6,6 8,4 8 5 10 6 NE 1026,8 0,3 0 0,0
12.01.2018 06:00:00 2,9 2,8 2,9 6,6 8,4 5 3 11 6 NNW 1026,6 0,3 0 0,0
12.01.2018 05:00:00 2,8 2,7 3,1 6,6 8,4 9 5 12 6 ENE 1026,0 0,2 0 0,0
12.01.2018 04:00:00 3,4 3,3 3,5 6,6 8,4 6 3 15 8 N 1025,6 0,2 0 0,0
12.01.2018 03:00:00 3,9 3,6 3,8 6,6 8,4 9 5 13 7 N 1025,4 2,5 0 0,0
12.01.2018 02:00:00 4,0 3,7 4,0 6,6 8,4 5 3 9 5 NNW 1025,4 4,6 0 0,0
12.01.2018 01:00:00 4,1 3,7 4,1 6,6 8,4 3 2 14 7 NNE 1025,2 5 0 0,0
12.01.2018 00:00:00 4,4 4,0 4,4 6,6 8,4 6 4 14 8 N 1024,9 7 0 0,0
11.01.2018 23:00:00 4,5 4,4 4,5 6,6 8,4 10 5 21 12 NE 1024,3 8 0 0,0
11.01.2018 22:00:00 4,7 4,7 4,4 6,6 8,4 7 4 11 6 NE 1023,9 2,2 0 0,0
11.01.2018 21:00:00 4,4 4,3 4,3 6,6 8,4 6 4 14 7 N 1023,7 0,7 0 0,0
11.01.2018 20:00:00 4,4 4,3 4,5 6,6 8,4 11 6 17 9 N 1023,1 1,0 0 0,0
11.01.2018 19:00:00 5,1 5,0 5,1 6,6 8,4 9 5 15 8 N 1021,9 3,5 0 0,0
11.01.2018 18:00:00 5,2 5,1 5,3 6,5 8,4 6 3 11 6 NE 1021,0 3,4 0 0,0
11.01.2018 17:00:00 5,2 5,2 5,5 6,5 8,4 5 3 14 8 N 1020,4 4,8 0 0,0
11.01.2018 16:00:00 5,0 5,0 6,1 6,4 8,4 6 4 11 6 N 1019,6 3,9 0 0,0
11.01.2018 15:00:00 4,9 4,9 6,0 6,4 8,4 5 3 11 6 N 1019,0 1,0 0 0,0
11.01.2018 14:00:00 4,7 4,7 5,9 6,4 8,4 6 3 11 6 NE 1018,0 0,2 0 0,0
11.01.2018 13:00:00 4,3 4,3 5,8 6,4 8,4 6 4 11 6 NE 1017,9 0,2 0 0,0
11.01.2018 12:00:00 4,5 4,5 5,1 6,3 8,4 5 3 11 6 E 1017,2 0,4 0 0,0
11.01.2018 11:00:00 4,3 4,3 4,7 6,4 8,4 8 4 12 7 E 1016,5 0,2 0 0,0
11.01.2018 10:00:00 4,4 4,4 4,5 6,4 8,4 6 3 11 6 NE 1015,7 0,2 0 0,2
11.01.2018 09:00:00 4,4 4,4 4,4 6,4 8,4 8 4 15 8 E 1014,3 0,2 0 0,0
11.01.2018 08:00:00 4,6 4,6 4,2 6,4 8,4 12 6 17 9 ENE 1013,3 0,2 0 0,0
11.01.2018 07:00:00 4,2 4,2 4,0 6,5 8,4 11 6 19 11 E 1012,2 0,5 0 0,0

tt = Température de l'air
td = dewpoint
tt 5cm = Température de l'air 5cm
tt -20cm = Température de l'air -20cm
tt -100cm = Température de l'air -100cm
ff = Vitesse du vent
fx = gusts
dd = Direction du vent
ppp = reduced air pressure
vv = visibility
sd = Ensoleillement
rr = Quantités de précipitations

stations d'obs. à proximité